radioonline.co.id alexa rank chart, radioonline.co.id alexa rank daily changes

radioonline.co.id alexa rank chart, radioonline.co.id alexa rank daily changes

radioonline.co.id
Actual rank:
54 427

RANK HISTORY

Date Rank Diff
2017/11/23 54 427 -490
2017/11/22 54 917 +94
2017/11/21 54 823 +468
2017/11/20 54 355 +403
2017/11/19 53 952 +236
2017/11/18 53 716 -121
2017/11/17 53 837 -602
2017/11/16 54 439 -273
2017/11/15 54 712 +689
2017/11/14 54 023 +327
2017/11/13 53 696 +204
2017/11/12 53 492 -211
2017/11/11 53 703 -285
2017/11/10 53 988 -375
2017/11/09 54 363 -349
2017/11/08 54 712 -273
2017/11/07 54 985 -247
2017/11/06 55 232 +191
2017/11/05 55 041 -81
2017/11/04 55 122 -219
2017/11/03 55 341 -399
2017/11/02 55 740 -534
2017/11/01 56 274 +14
2017/10/31 56 260 +100
2017/10/30 56 160 -92
2017/10/29 56 252 +293
2017/10/28 55 959 -186
2017/10/27 56 145 -875
2017/10/26 57 020 -219
2017/10/25 57 239 -254
2017/10/24 57 493 +253
2017/10/23 57 240 -813
2017/10/22 58 053 +56
2017/10/21 57 997 -532
2017/10/20 58 529 -473
2017/10/19 59 002 -550
2017/10/18 59 552 -117
2017/10/17 59 669 +414
2017/10/16 59 255 +169
2017/10/14 59 086 +118
2017/10/13 58 968 -314
2017/10/12 59 282 -437
2017/10/11 59 719 -266
2017/10/10 59 985 +42
2017/10/09 59 943 +157
2017/10/08 59 786 +34
2017/10/07 59 752 +56
2017/10/06 59 696 -58
2017/10/05 59 754 -850
2017/10/04 60 604 -517
2017/10/03 61 121 -201
2017/10/02 61 322 +329
2017/10/01 60 993 +363
2017/09/30 60 630 +336
2017/09/29 60 294 -619
2017/09/28 60 913 -892
2017/09/27 61 805 +346
2017/09/26 61 459 +646
2017/09/25 60 813 +161
2017/09/24 60 652

WIDGET FOR YOUR SITE

DOMAINS WITH THE NEAREST RANK

Domain Rank
perlas.lt 54 422
bpm-power.com 54 423
jakubmarian.com 54 424
onlinenic.com 54 425
mammothmountain.com 54 426
radioonline.co.id 54 427
thewritepractice.com 54 428
ariafurniture.co.kr 54 429
ipitaka.com 54 430
hbooker.com 54 431
livekaksnelja.com 54 432

DOMAINS WITH THE NEAREST RANK BY TLD .co.id

Domain Rank
indonetwork.co.id 48 018
sriwijayaair.co.id 49 382
wartaekonomi.co.id 50 863
mitula.co.id 51 748
gurupendidikan.co.id 53 049
radioonline.co.id 54 427
babla.co.id 56 464
carmudi.co.id 56 768
kudo.co.id 56 772
pelajaran.co.id 56 776
syariahmandiri.co.id 57 169